Location: Cosy Dell
(34.2789°N, 117.4537°W)
Time: 19:25:42
(UTC+00:00)

Cosmos 1315 Rocket - Pass Details

Date: 14 July 2020
Orbit: 530 x 568 km, 81.2° (Epoch: 13 August)

Event Time Altitude Azimuth Distance (km) Brightness Sun altitude
Rises 04:10:07 0° 1° (N) 2,768 7.0 -12.6°
Reaches altitude 10° 04:12:26 10° 10° (N) 1,869 5.9 -12.9°
Maximum altitude 04:16:16 37° 78° (ENE) 891 3.6 -13.6°
Enters shadow 04:18:14 23° 130° (SE) 1,222 3.9 -13.9°
